Home > Weather > Cúcuta > Past weeks

Flag for Colombia Weather for the Past 2 Weeks in Cúcuta, Colombia

Now
81 °F

Partly cloudy.


Feels Like: 83 °F
Forecast: 64 / 96 °F
Wind: 5 mph from North

Location: Cucuta / Camilo Daza

Current Time: Feb 5, 2016 at 8:35:24 PM

Latest Report: Feb 5, 2016 at 7:00 PM


Visibility: 4 mi

Pressure: 29.95 "Hg

Humidity: 66%

Dew point: 68 °F

Location of CúcutaLocation

Historic Weather in Cúcuta — Graph

°F

Cúcuta Temperature Yesterday

Maximum temperature yesterday: 90 °F (at 3:00 PM)
Minimum temperature yesterday: 73 °F (at 5:00 AM)
Average temperature yesterday: 82 °F

High & Low Weather Summary for the Past Weeks

 TemperatureHumidityPressure
High99 °F (Jan 29, 12:00 PM)100% (Feb 1, 11:00 PM)30.10 "Hg (Feb 1, 11:00 PM)
Low72 °F (Jan 27, 6:00 AM)27% (Jan 23, 2:00 PM)29.82 "Hg (Jan 23, 3:00 PM)
Average83 °F59%29.95 "Hg
* Reported Jan 21 7:00 PM — Feb 5 7:00 PM, Cúcuta, Weather by CustomWeather, © 2016

Note: Actual official high and low records may vary slightly from our data, if they occured in-between our weather recording intervals... More about our weather records

Advertising

Cúcuta Weather History for the Previous 24 Hours

 ConditionsComfort  
Time TempWeatherWind HumidityBarometerVisibility
7:00 PM
Fri, Feb 5
81 °FPartly cloudy.5 mph66%29.95 "Hg4 mi
6:00 PM81 °FPartly cloudy.5 mph66%29.93 "Hg5 mi
5:00 PM82 °FBroken clouds.10 mph62%29.91 "Hg5 mi
4:00 PM84 °FBroken clouds.2 mph58%29.90 "Hg5 mi
3:00 PM82 °FBroken clouds.2 mph58%29.92 "Hg4 mi
2:00 PM81 °FFog.No wind66%29.96 "Hg4 mi
1:00 PM81 °FFog.2 mph66%30.00 "Hg4 mi
12:00 PM79 °FFog.7 mph70%30.03 "Hg4 mi
11:00 AM79 °FFog.5 mph65%30.06 "Hg4 mi
10:00 AM79 °FFog.7 mph65%30.07 "Hg4 mi
9:00 AM77 °FFog.7 mph74%30.06 "Hg4 mi
8:00 AM75 °FFog.9 mph78%30.04 "Hg4 mi
7:00 AM75 °FBroken clouds.8 mph78%30.01 "Hg3 mi
6:00 AM75 °FPassing clouds.10 mph78%29.97 "Hg3 mi
5:00 AM75 °FPartly cloudy.No wind78%29.94 "Hg2 mi
12:00 AM82 °FPartly cloudy.No wind66%29.94 "Hg5 mi
11:00 PM
Thu, Feb 4
84 °FPartly cloudy.No wind62%29.93 "Hg5 mi
10:00 PM84 °FPartly cloudy.2 mph62%29.93 "Hg5 mi
9:00 PM84 °FPartly cloudy.5 mph58%29.92 "Hg5 mi
8:00 PM84 °FPassing clouds.5 mph58%29.90 "Hg5 mi
Weather by CustomWeather, © 2016

See weather overviewHow to use our weather pages